"Time","Temp","Dewpoint","Humidity","Pressure","Direction","Speed","Gust","Precip","PrecipRate"
"00:04:56","69.7","68.8","97","29.90","9","0.6","2.3","0.00","0.03"
"00:09:59","69.7","68.8","97","29.90","359","1.1","4","0.00","0.02"
"00:14:58","69.7","68.8","97","29.90","355","0.7","3.5","0.00","0.02"
"00:19:58","69.7","68.8","97","29.90","355","0.3","3.5","0.00","0.01"
"00:24:56","69.6","68.7","97","29.90","355","0.2","2.3","0.00","0.01"
"00:29:59","69.6","68.7","97","29.90","355","0.6","3.5","0.00","0.00"
"00:34:58","69.5","68.6","97","29.89","355","0.4","2.3","0.00","0.00"
"00:39:57","69.5","68.6","97","29.89","352","0.2","2","0.00","0.00"
"00:44:56","69.5","68.6","97","29.89","348","0.6","3.5","0.00","0.00"
"00:49:59","69.4","68.5","97","29.88","349","0.4","2.3","0.00","0.00"
"00:54:58","69.4","68.5","97","29.88","349","0.5","3.5","0.00","0.00"
"00:59:57","69.4","68.5","97","29.88","349","0.3","2.3","0.00","0.00"
"01:04:59","69.4","68.5","97","29.87","349","0","1.2","0.00","0.00"
"01:09:59","69.4","68.5","97","29.87","349","0","0","0.00","0.00"
"01:14:58","69.4","68.5","97","29.88","349","0","0","0.00","0.00"
"01:19:57","69.4","68.5","97","29.88","349","0","1.2","0.00","0.00"
"01:24:56","69.5","68.6","97","29.88","349","0","0","0.00","0.00"
"01:29:58","69.5","68.6","97","29.88","349","0","0","0.00","0.00"
"01:34:58","69.5","68.6","97","29.87","349","0","0","0.00","0.00"
"01:39:58","69.4","68.5","97","29.87","349","0","0","0.00","0.00"
"01:44:57","69.4","68.5","97","29.87","349","0","0","0.00","0.00"
"01:49:56","69.4","68.5","97","29.87","349","0","0","0.00","0.00"
"01:54:59","69.5","68.6","97","29.87","349","0","0","0.01","0.01"
"01:59:57","69.5","68.6","97","29.88","349","0","0","0.01","0.01"
"02:04:59","69.4","68.5","97","29.88","349","0","0","0.02","0.02"
"02:09:58","69.4","68.5","97","29.88","349","0","0","0.03","0.03"
"02:14:58","69.4","68.5","97","29.88","349","0","0","0.04","0.04"
"02:19:58","69.3","68.4","97","29.87","349","0","0","0.04","0.04"
"02:24:56","69.3","68.4","97","29.87","349","0","0","0.04","0.04"
"02:29:59","69.3","68.4","97","29.87","349","0","0","0.04","0.04"
"02:34:57","69.3","68.4","97","29.87","349","0","0","0.04","0.04"
"02:39:58","69.3","68.4","97","29.87","10","0","1","0.04","0.04"
"02:44:57","69.2","68.3","97","29.87","11","0.1","1.2","0.04","0.04"
"02:49:55","69.1","68.2","97","29.86","11","0.2","2.3","0.04","0.04"
"02:54:58","69.1","68.2","97","29.86","11","0.2","1.2","0.04","0.04"
"02:59:57","69","68.1","97","29.86","11","0.6","2.3","0.04","0.03"
"03:04:56","69","68.1","97","29.86","12","0.2","2.3","0.05","0.03"
"03:09:59","68.9","68","97","29.86","13","0.3","2","0.05","0.03"
"03:14:59","68.9","68","97","29.86","13","0.2","2.3","0.05","0.02"
"03:19:57","68.8","67.9","97","29.86","32","0.3","2.3","0.05","0.01"
"03:24:56","68.8","67.9","97","29.86","32","0.2","1.2","0.06","0.02"
"03:29:58","68.8","67.9","97","29.86","31","0.3","1.2","0.06","0.02"
"03:34:56","68.7","67.8","97","29.86","32","0","1.2","0.07","0.03"
"03:39:56","68.6","67.7","97","29.86","32","0","0","0.07","0.03"
"03:44:59","68.6","67.7","97","29.86","32","0","0","0.07","0.03"
"03:49:58","68.6","67.7","97","29.86","28","0.1","3","0.08","0.04"
"03:54:56","68.5","67.6","97","29.86","29","0.5","3.5","0.08","0.04"
"03:59:58","68.5","67.6","97","29.86","30","0.1","1.2","0.08","0.04"
"04:04:56","68.4","67.5","97","29.86","30","0.1","2","0.08","0.04"
"04:09:59","68.3","67.4","97","29.86","31","0.3","2.3","0.09","0.04"
"04:14:58","68.2","67.3","97","29.86","32","0.3","1.2","0.09","0.04"
"04:19:57","68.1","67.2","97","29.86","32","0.2","2.3","0.09","0.04"
"04:24:56","67.9","67","97","29.86","32","0.3","2.3","0.09","0.04"
"04:29:58","67.9","67","97","29.86","65","0.4","3.5","0.09","0.03"
"04:34:57","67.7","66.8","97","29.86","69","0","1.2","0.10","0.03"
"04:39:59","67.7","66.8","97","29.86","69","0.1","1.2","0.10","0.03"
"04:44:57","67.7","66.8","97","29.87","69","0.2","2.3","0.10","0.03"
"04:49:56","67.6","66.7","97","29.87","69","0.4","2.3","0.10","0.03"
"04:54:59","67.6","66.7","97","29.87","69","0","1.2","0.10","0.02"
"04:59:58","67.6","66.7","97","29.88","69","0","1","0.10","0.02"
"05:04:56","67.6","66.7","97","29.88","69","0","1.2","0.10","0.02"
"05:09:56","67.6","66.7","97","29.88","69","0","0","0.10","0.02"
"05:14:56","67.6","66.7","97","29.88","69","0","0","0.10","0.01"
"05:19:58","67.6","66.7","97","29.88","69","0","0","0.10","0.01"
"05:24:58","67.5","66.6","97","29.88","69","0","0","0.11","0.02"
"05:29:57","67.5","66.6","97","29.88","69","0","1.2","0.11","0.02"
"05:34:56","67.4","66.5","97","29.87","86","0.7","3.5","0.11","0.02"
"05:39:56","67.3","66.4","97","29.87","89","0.2","2.3","0.11","0.01"
"05:44:59","67.3","66.4","97","29.87","89","0.2","2.3","0.11","0.01"
"05:49:58","67.3","66.4","97","29.87","78","0.4","2.3","0.11","0.01"
"05:54:57","67.3","66.4","97","29.87","62","0.4","2.3","0.11","0.01"
"05:59:56","67.3","66.4","97.1","29.87","62","0.1","1.2","0.11","0.01"
"06:04:58","67.3","66.4","97.1","29.87","62","0.6","2.3","0.11","0.01"
"06:09:59","67.3","66.5","97.4","29.87","123","2","6","0.11","0.01"
"06:14:59","67.1","66.2","97","29.87","114","1.5","3.5","0.11","0.01"
"06:19:57","66.9","66","97","29.87","104","1.2","3.5","0.11","0.01"
"06:24:59","66.7","65.8","97","29.87","119","1.6","5","0.11","0.01"
"06:29:57","66.6","65.7","97","29.87","108","1.2","3.5","0.11","0.00"
"06:34:56","66.5","65.6","97","29.87","108","0.5","3.5","0.11","0.00"
"06:39:59","66.5","65.6","97","29.87","108","0.5","2.3","0.11","0.00"
"06:44:58","66.5","65.6","97","29.88","108","0.2","2","0.11","0.00"
"06:49:56","66.5","65.6","97","29.88","119","1.1","3.5","0.11","0.00"
"06:54:58","66.5","65.6","97","29.88","129","1.2","3.5","0.12","0.01"
"06:59:56","66.5","65.6","97","29.88","126","0.6","3.5","0.13","0.01"
"07:04:58","66.4","65.5","97","29.88","126","0.4","3.5","0.13","0.02"
"07:09:58","66.3","65.4","97","29.88","126","0.6","2.3","0.14","0.03"
"07:14:57","66.3","65.4","97","29.88","126","1.4","4","0.14","0.03"
"07:19:56","66.2","65.3","97","29.88","125","1","3.5","0.14","0.03"
"07:24:59","66.2","65.3","97","29.88","125","1","4","0.14","0.03"
"07:29:58","66.1","65.2","97","29.89","125","1.6","5","0.14","0.03"
"07:34:56","66.1","65.2","97","29.89","125","1.5","5","0.15","0.03"
"07:39:56","66","65.1","97","29.89","130","1.8","6","0.15","0.04"
"07:44:58","65.9","65","97","29.90","133","1.5","4","0.15","0.04"
"07:49:57","65.9","65","97","29.90","132","0.6","3.5","0.15","0.04"
"07:54:59","65.9","65","97","29.90","132","0.1","2.3","0.16","0.05"
"07:59:58","65.9","65","97","29.90","33","0.4","2.3","0.16","0.04"
"08:04:57","65.9","65","97","29.90","31","0.4","2.3","0.16","0.03"
"08:09:56","66","65.2","97.3","29.90","62","0.9","4","0.16","0.03"
"08:14:59","66","65.1","97","29.90","67","0.3","3.5","0.16","0.02"
"08:19:58","66","65.1","97","29.90","75","0.1","1.2","0.16","0.02"
"08:24:56","66","65.2","97.3","29.90","76","0.4","4","0.16","0.02"
"08:29:59","66.2","65.4","97.6","29.90","92","1.7","4","0.16","0.02"
"08:34:58","66.2","65.3","97","29.90","103","0.9","3.5","0.16","0.02"
"08:39:58","66.1","65.2","97","29.90","104","0.8","4","0.16","0.01"
"08:44:56","66.1","65.2","97","29.90","106","0.7","3.5","0.16","0.01"
"08:49:59","66.1","65.2","97","29.90","109","0.6","3.5","0.16","0.01"
"08:54:58","66.3","65.4","97","29.90","109","0.6","3.5","0.16","0.00"
"08:59:56","66.3","65.4","97","29.91","109","1","3.5","0.16","0.00"
"09:04:58","66.4","65.5","97","29.91","109","0.9","2.3","0.16","0.00"
"09:09:57","66.4","65.5","97","29.91","109","0.6","2.3","0.16","0.00"
"09:14:57","66.5","65.6","97","29.91","109","0.1","1.2","0.16","0.00"
"09:19:56","66.5","65.6","97","29.91","109","0.1","1.2","0.16","0.00"
"09:24:58","66.6","65.7","97","29.91","109","0.1","1.2","0.16","0.00"
"09:29:57","66.6","65.7","97","29.91","108","0.2","2","0.16","0.00"
"09:34:59","66.6","65.7","97","29.91","108","0.4","2.3","0.16","0.00"
"09:39:59","66.7","65.8","97","29.91","108","0.4","2.3","0.16","0.00"
"09:44:58","66.7","65.8","97","29.91","108","0.6","2.3","0.16","0.00"
"09:49:56","66.6","65.7","97","29.91","106","1.2","4","0.16","0.00"
"09:54:59","66.5","65.6","97","29.91","106","1.7","3.5","0.16","0.00"
"09:59:57","66.4","65.5","96.8","29.91","126","1.6","6","0.16","0.00"
"10:04:59","66.3","65.4","97","29.91","130","1.4","4","0.16","0.00"
"10:09:58","66.3","65.4","97","29.91","131","0.4","4","0.16","0.00"
"10:14:58","66.3","65.4","97","29.92","130","1.1","3.5","0.16","0.00"
"10:19:56","66.2","65.3","97","29.92","130","1.1","4","0.16","0.00"
"10:24:58","66.3","65.4","97","29.92","130","1.3","4","0.16","0.00"
"10:29:56","66.2","65.3","97","29.92","108","1.5","9.2","0.16","0.00"
"10:34:58","66.2","65.3","97","29.92","109","1.1","5","0.16","0.00"
"10:39:59","66.1","65.2","97","29.92","111","1","4","0.16","0.00"
"10:44:57","66","65.1","97","29.93","111","0.9","3.5","0.16","0.00"
"10:49:59","65.9","65","97","29.93","111","1.1","2.3","0.16","0.00"
"10:54:58","65.7","64.8","97","29.93","112","1","2.3","0.16","0.00"
"10:59:56","65.7","64.8","97","29.93","114","1.4","4","0.16","0.00"
"11:04:58","65.6","64.7","97","29.93","114","1.8","5","0.16","0.00"
"11:09:57","65.6","64.7","97","29.93","112","1.8","7","0.16","0.00"
"11:14:57","65.6","64.7","97","29.93","112","1.1","5","0.16","0.00"
"11:19:59","65.7","64.8","97","29.93","141","1.6","7","0.16","0.00"
"11:24:57","65.9","65","97","29.93","130","1","4","0.16","0.00"
"11:29:59","66.1","65.2","97","29.94","131","2.2","5","0.16","0.00"
"11:34:57","66.2","65.3","97","29.94","127","1.9","6","0.16","0.00"
"11:39:57","66.2","65.3","97","29.94","126","0.4","2.3","0.16","0.00"
"11:44:59","66.1","65.2","97","29.94","111","0.7","2.3","0.16","0.00"
"11:49:58","66.1","65.2","97","29.94","106","0.8","3.5","0.17","0.01"
"11:54:56","66.1","65.2","97","29.94","110","0.6","3.5","0.17","0.01"
"11:59:59","66.1","65.2","97","29.94","109","0.6","4","0.17","0.01"
"12:04:57","66.4","65.5","97","29.94","109","0.1","2.3","0.17","0.01"
"12:09:59","66.5","65.6","97","29.94","109","0.6","4","0.17","0.01"
"12:14:57","66.5","65.6","97","29.94","110","1.5","5","0.17","0.01"
"12:19:59","66.5","65.5","96.7","29.94","111","0.8","3.5","0.17","0.01"
"12:24:57","66.5","65.3","96.2","29.94","111","1.5","4","0.17","0.01"
"12:29:59","66.3","65.1","95.8","29.94","110","1.4","4","0.17","0.01"
"12:34:58","66.2","65","96","29.94","108","0.9","4","0.17","0.01"
"12:39:57","66.4","65.2","96.2","29.94","109","0.1","2.3","0.17","0.01"
"12:44:56","66.6","65.7","97","29.95","94","0","0","0.17","0.01"
"12:49:58","66.7","65.7","96.5","29.95","93","0","0","0.17","0.01"
"12:54:56","66.8","65.6","96","29.95","92","0","0","0.17","0.00"
"12:59:59","66.7","65.3","95.2","29.96","92","0","0","0.17","0.00"
"13:04:57","66.6","65.3","95.6","29.96","92","0","0","0.17","0.00"
"13:09:56","66.6","65.4","96","29.96","90","0","0","0.17","0.00"
"13:14:56","66.8","65.6","96","29.96","90","0","0","0.17","0.00"
"13:19:58","67","65.8","96","29.96","129","1.4","5","0.17","0.00"
"13:24:57","67.2","65.8","95.3","29.96","127","1.8","5","0.17","0.00"
"13:29:56","66.9","65.4","95","29.96","126","1.8","5","0.17","0.00"
"13:34:58","66.9","65.6","95.6","29.96","126","1","3.5","0.17","0.00"
"13:39:57","66.9","65.5","95.3","29.96","126","0.6","4","0.17","0.00"
"13:44:56","66.9","65.4","94.8","29.96","138","1.4","6","0.17","0.00"
"13:49:59","67","65.4","94.5","29.96","139","1","3.5","0.17","0.00"
"13:54:57","67.2","65.2","93.5","29.96","136","0.8","4","0.17","0.00"
"13:59:55","67.4","65.6","93.8","29.96","134","1.1","4","0.17","0.00"
"14:04:58","67.8","65.9","93.5","29.96","130","1.6","4","0.17","0.00"
"14:09:57","68.1","66","92.9","29.96","130","0.5","3.5","0.17","0.00"
"14:14:56","68.3","65.8","91.7","29.96","130","0.6","3.5","0.17","0.00"
"14:19:59","68.3","65.6","90.8","29.96","130","0.9","3.5","0.17","0.00"
"14:24:57","68.7","66.3","91.9","29.96","130","0.5","3.5","0.17","0.00"
"14:29:59","69.1","66.3","90.7","29.96","130","0","1.2","0.17","0.00"
"14:34:57","69.4","66.4","90.3","29.96","130","0.7","4","0.17","0.00"
"14:39:57","69.7","66.1","88.5","29.96","129","1.3","4","0.17","0.00"
"14:44:57","69.8","66.1","88","29.97","129","0.3","2.3","0.17","0.00"
"14:49:59","69.9","66.1","87.8","29.97","129","0.1","1.2","0.17","0.00"
"14:54:57","69.8","65.9","87.2","29.97","129","1.3","4","0.17","0.00"
"14:59:56","69.6","65.8","87.5","29.97","128","0.7","3.5","0.17","0.00"
"15:04:58","69.4","65.7","88","29.97","131","1.4","3.5","0.17","0.00"
"15:09:57","69.3","65.6","88","29.97","132","1","3.5","0.17","0.00"
"15:14:57","69.3","65.6","88","29.97","132","0.8","4","0.17","0.00"
"15:19:59","69.4","65.9","88.7","29.97","132","0.7","3.5","0.17","0.00"
"15:24:57","69.5","65.8","88.2","29.97","132","0.9","3.5","0.17","0.00"
"15:29:59","69.6","66","88.5","29.97","133","1","3.5","0.17","0.00"
"15:34:58","69.8","66.2","88.3","29.96","133","0.8","3.5","0.17","0.00"
"15:39:57","69.8","66.1","87.8","29.96","133","0.8","3.5","0.17","0.00"
"15:44:56","70","66.1","87.4","29.96","133","1","3.5","0.17","0.00"
"15:49:58","70.3","66.5","87.9","29.96","134","1.5","3.5","0.17","0.00"
"15:54:56","70.6","66.5","87.1","29.96","138","0.8","2.3","0.17","0.00"
"15:59:57","70.9","66.6","86.2","29.96","146","0.7","3.5","0.17","0.00"
"16:04:59","71.2","66.7","85.6","29.96","146","1.1","4","0.17","0.00"
"16:09:58","71.4","66.7","85.2","29.96","146","0.9","3.5","0.17","0.00"
"16:14:57","71.4","66.6","84.8","29.96","146","0.5","2.3","0.17","0.00"
"16:19:56","71.3","66.5","84.9","29.96","146","0.1","1.2","0.17","0.00"
"16:24:59","71.2","66.6","85.3","29.96","146","0","0","0.17","0.00"
"16:29:58","71.2","66.4","84.9","29.96","146","0","0","0.17","0.00"
"16:34:57","71","66.3","85.1","29.95","146","0.1","2","0.17","0.00"
"16:39:56","70.8","66.2","85.4","29.95","146","0.5","3","0.17","0.00"
"16:44:59","70.8","66.4","86","29.95","146","0","0","0.17","0.00"
"16:49:57","70.9","66.5","86","29.95","146","0.1","2","0.17","0.00"
"16:54:56","71","66.4","85.5","29.95","146","0","1.2","0.17","0.00"
"16:59:58","71","66.3","85.1","29.95","146","0.1","1.2","0.17","0.00"
"17:04:56","71.1","66.2","84.6","29.95","146","0","1.2","0.17","0.00"
"17:09:59","71.2","66.5","85","29.95","146","0.1","1.2","0.17","0.00"
"17:14:59","71.4","66.5","84.5","29.95","146","0.4","2.3","0.17","0.00"
"17:19:57","71.4","66.3","83.8","29.95","146","0.6","3.5","0.17","0.00"
"17:24:56","71.5","66.5","84.3","29.95","146","0.6","3.5","0.17","0.00"
"17:29:58","71.7","66.8","84.6","29.95","146","0.3","2.3","0.17","0.00"
"17:34:57","72","66.8","83.6","29.95","146","0.2","2.3","0.17","0.00"
"17:39:56","72.1","66.8","83.4","29.95","146","0.3","2","0.17","0.00"
"17:44:59","72","66.5","82.6","29.95","146","0.6","3.5","0.17","0.00"
"17:49:57","72.1","66.3","82.2","29.95","146","1","3.5","0.17","0.00"
"17:54:59","71.9","65.9","81.3","29.95","146","1.1","3.5","0.17","0.00"
